Theta_e
345 345 345 345 345 348 348 348 346 344 345 344 342 340 337 334 333 333 333 338 344 354 359 360 356 352 349 349 349 347 343 342 339 338 337 337 337 338 337 335 334 333 331
346 344 344 344 344 345 347 346 345 342 342 343 341 340 338 335 333 333 333 334 342 350 356 359 358 354 350 349 349 347 345 343 341 342 342 339 334 331 330 329 328 326 323
347 346 344 343 343 344 346 346 344 343 342 341 339 340 338 335 333 333 332 333 338 346 353 356 357 356 353 350 348 347 346 345 343 342 335 331 327 324 322 321 320 320 321
348 345 344 343 344 343 344 344 344 342 341 340 339 338 338 336 333 332 332 333 338 341 351 354 355 355 354 352 349 347 347 345 339 334 329 324 319 317 316 317 319 320 320
347 346 344 344 344 343 341 342 343 342 341 339 338 338 337 334 333 333 333 337 339 343 346 350 353 353 353 353 351 349 346 340 334 329 323 318 315 315 316 317 318 318 319
344 342 343 342 342 342 341 341 340 343 341 341 339 339 337 335 334 333 335 340 343 345 347 348 350 351 351 351 351 349 346 338 331 325 320 316 313 314 315 316 316 316 317
338 340 341 341 343 340 340 341 341 341 340 341 334 336 332 334 334 334 338 341 343 345 346 345 346 349 349 349 348 348 344 336 328 323 317 314 312 312 312 313 314 315 315
329 331 334 338 340 340 341 341 340 338 339 338 335 329 328 334 335 337 339 341 342 344 344 343 344 346 346 347 345 344 341 334 328 322 317 313 311 310 310 311 311 312 314
327 330 331 334 338 340 338 340 340 338 336 335 336 334 325 323 329 337 339 341 343 343 344 342 342 340 339 340 341 341 337 331 326 321 317 314 311 310 309 309 310 311 312
324 327 328 330 334 338 337 337 340 339 337 334 332 333 334 329 324 323 332 334 337 339 340 337 337 337 337 336 338 336 332 327 323 319 317 313 311 310 308 309 309 310 312
320 324 324 329 330 332 336 337 338 337 336 335 335 332 332 332 332 326 322 328 329 331 336 334 334 333 332 331 329 327 326 324 319 315 314 313 311 310 307 308 309 310 311
315 318 321 323 326 328 329 332 337 337 335 333 335 333 331 329 329 328 325 327 325 324 323 324 327 326 324 323 325 325 322 320 317 316 312 312 311 311 309 307 309 310 311
311 312 316 320 323 326 328 331 333 332 332 332 331 330 332 332 333 332 329 323 320 319 317 319 320 320 321 321 322 322 321 314 315 315 314 312 312 312 311 309 309 309 310
309 313 316 319 322 325 325 325 325 330 333 331 332 334 335 335 335 334 331 328 321 317 316 315 315 314 315 317 319 320 315 315 314 314 314 314 313 313 313 310 308 308 308
309 311 314 316 320 324 325 326 325 327 330 333 334 335 335 335 335 334 333 330 325 318 311 310 309 310 310 312 314 309 306 309 309 314 314 315 316 315 315 310 307 307 307
308 309 311 314 317 321 323 326 328 330 330 331 332 332 332 333 335 335 332 331 329 325 317 311 309 308 309 309 312 305 308 305 307 309 311 312 312 310 308 306 306 305 304
307 308 309 312 315 319 323 324 326 328 326 328 326 326 326 322 328 330 331 330 328 327 322 305 305 305 303 302 301 303 304 304 308 310 309 308 308 308 307 306 304 303 304
307 308 309 312 316 321 322 324 322 321 320 318 317 316 311 312 309 310 311 310 313 318 311 301 300 298 298 299 300 301 304 305 305 306 305 304 306 306 304 303 302 303 303
307 308 309 310 318 321 323 319 315 311 310 309 309 308 307 307 305 305 306 304 304 304 306 300 296 297 297 298 297 297 298 299 305 303 302 302 303 304 303 302 302 302 302
307 308 309 313 319 320 317 312 309 307 306 306 306 306 306 305 304 304 304 302 300 298 298 296 295 295 295 296 297 295 294 296 296 298 299 300 301 302 301 301 301 301 300
306 308 309 315 316 316 313 308 307 306 306 306 307 307 308 308 308 305 302 301 300 298 296 294 293 293 292 293 294 294 294 294 295 295 297 297 298 299 299 299 301 301 300
306 307 312 313 310 310 304 306 307 305 304 303 302 303 305 306 305 304 303 302 298 295 293 293 293 291 291 293 293 294 294 293 292 297 296 295 297 296 298 299 300 300 299
305 310 308 307 306 306 302 303 304 303 302 301 301 301 301 302 302 300 300 299 300 299 298 295 292 292 292 293 295 294 293 294 294 296 295 293 296 295 296 298 300 300 299
307 306 305 304 303 303 301 301 302 302 302 301 300 299 299 298 297 297 295 295 295 295 295 297 295 295 295 295 295 295 295 294 295 296 296 292 296 294 297 298 299 300 298
303 303 302 302 301 299 299 300 302 301 299 298 298 298 297 297 295 295 296 294 294 295 298 297 296 295 296 296 295 295 293 293 292 294 296 295 295 295 296 296 298 299 298
300 301 300 301 300 300 301 301 300 299 295 295 297 297 297 295 294 294 295 294 292 293 294 295 296 296 297 297 297 295 294 292 292 293 296 294 294 293 292 296 297 298 297
Wind_Speed
3 5 6 6 5 4 4 5 6 7 7 7 7 8 8 8 8 5 4 15 15 14 16 17 17 17 16 15 13 13 13 12 11 10 9 10 10 10 6 6 8 9 13
4 5 5 6 4 4 4 4 5 8 7 7 8 8 9 8 8 8 6 7 15 15 16 17 18 18 17 15 14 15 13 12 12 10 11 5 3 1 3 6 8 9 10
8 7 5 5 6 5 7 7 9 9 8 6 9 9 8 8 8 8 8 7 7 15 17 19 19 18 17 17 17 16 13 12 12 5 7 6 3 1 4 6 7 8 8
7 5 5 6 5 5 6 7 7 9 8 7 8 8 8 7 9 8 8 7 7 7 13 20 21 20 18 17 17 17 14 9 10 9 7 5 2 2 4 5 7 8 8
5 5 5 6 5 6 6 7 8 8 8 8 8 8 8 7 9 8 10 10 10 10 7 15 22 20 18 18 18 18 15 14 12 10 8 5 2 2 4 6 7 8 9
4 4 5 6 5 6 7 7 9 7 8 9 8 8 7 7 7 7 10 9 8 10 10 10 10 12 19 19 18 18 16 13 13 11 9 6 2 1 4 6 7 8 8
4 4 4 6 7 8 10 9 8 9 8 5 2 6 7 10 10 8 8 8 9 10 10 9 7 8 9 19 17 18 17 16 14 12 9 6 3 1 4 5 6 7 8
3 4 5 6 8 7 10 11 10 9 8 6 5 2 5 4 6 9 8 9 11 8 9 10 10 10 8 8 10 18 19 18 15 12 10 7 3 2 3 4 6 8 10
5 5 6 6 7 8 9 10 10 12 9 4 9 5 3 4 3 1 7 6 8 7 7 9 10 9 9 8 11 17 20 18 14 12 11 9 6 4 2 3 5 6 8
8 8 7 7 7 6 8 11 8 10 9 9 3 8 5 4 3 3 1 3 5 6 7 5 7 9 10 8 14 13 14 14 13 11 10 8 8 6 3 3 4 5 9
7 9 10 9 9 5 7 8 9 9 6 7 6 3 7 7 8 10 9 5 3 1 2 5 7 7 8 6 6 10 14 11 8 8 8 10 9 8 4 3 3 6 9
6 8 9 9 8 8 7 7 9 10 11 9 7 7 8 6 7 9 10 10 6 2 1 2 2 5 6 7 10 9 15 7 5 5 8 10 9 10 7 5 5 8 9
5 9 9 10 9 8 9 7 7 8 9 9 11 10 9 11 10 8 9 4 3 2 3 4 0 1 4 7 9 15 12 8 7 8 7 9 10 10 10 7 8 8 9
7 10 10 10 12 10 8 7 6 7 10 11 15 12 9 10 9 10 10 7 5 5 3 3 2 4 3 1 11 17 8 14 4 1 8 12 12 13 10 9 8 9 9
8 10 10 11 12 10 9 8 7 8 9 11 11 12 10 10 11 11 10 10 10 8 7 6 5 4 6 7 3 5 6 8 4 6 10 12 11 10 7 7 6 8 8
10 11 12 11 12 11 10 8 8 9 8 8 7 8 8 6 8 9 10 9 10 9 4 2 2 3 7 8 7 5 7 10 9 8 5 5 4 3 1 2 3 4 5
10 11 12 12 13 12 8 7 9 11 8 7 4 5 6 6 6 6 6 6 7 7 7 2 4 7 7 10 8 9 6 6 6 11 11 10 8 7 7 10 5 4 8
11 12 12 12 13 10 6 7 9 6 3 3 4 5 5 4 5 5 4 4 3 3 3 6 4 4 7 6 8 9 5 6 4 9 12 12 9 10 10 7 6 7 10
11 12 12 12 10 7 5 2 2 4 5 6 6 6 5 5 5 4 5 5 5 6 3 9 8 4 4 4 8 6 5 4 2 11 12 10 6 8 7 7 8 10 11
11 12 11 11 8 7 1 4 5 6 7 8 8 8 8 8 7 8 7 7 6 8 9 8 10 7 5 4 5 7 6 4 3 4 5 8 7 5 8 7 8 9 10
11 11 12 8 2 2 3 7 7 7 9 10 10 10 10 14 18 14 7 8 9 9 8 9 7 6 6 3 4 2 4 2 3 4 2 1 3 0 1 4 7 9 11
10 11 9 3 0 1 10 12 11 10 10 12 11 11 12 18 21 24 24 23 15 11 11 9 7 6 3 3 1 2 4 2 2 4 1 6 3 2 1 1 7 9 10
9 6 3 3 3 5 13 16 17 9 10 10 11 10 11 9 13 13 20 22 21 19 13 8 9 4 3 1 2 3 3 5 4 3 2 4 2 1 1 3 7 12 11
6 2 3 4 4 5 14 17 18 11 11 11 11 11 12 12 12 14 13 13 14 11 8 6 6 4 4 3 4 3 5 6 4 3 3 2 3 1 1 1 8 11 12
3 4 4 4 7 7 9 12 15 12 12 13 11 11 12 13 10 12 13 15 13 11 13 14 12 12 12 11 5 4 4 3 2 0 4 2 4 2 1 1 4 12 10
5 5 7 6 11 9 10 8 10 9 14 11 11 11 15 10 12 14 13 10 10 5 5 6 7 9 10 12 15 9 3 3 1 1 4 3 3 2 2 1 4 4 5
Wind_Direction
213 230 235 237 241 236 230 246 254 262 248 240 242 245 245 241 239 238 247 258 258 245 227 218 215 216 211 211 217 214 214 215 224 226 230 244 253 263 309 331 309 314 313
213 223 233 236 227 232 244 243 246 258 254 249 253 243 246 240 236 227 234 246 246 242 227 224 218 217 216 212 215 223 217 215 224 233 236 254 70 53 323 321 315 311 313
226 223 228 232 229 210 217 231 251 255 255 249 253 254 252 244 237 228 233 239 244 238 225 220 219 215 215 211 215 220 223 218 227 233 142 135 125 0 326 315 310 306 310
224 229 240 244 227 227 220 228 237 249 255 248 255 252 251 246 238 227 233 230 230 233 226 221 219 215 210 210 214 217 220 213 163 150 152 129 102 359 314 313 309 306 307
233 229 237 251 227 231 227 230 235 227 241 240 242 248 248 244 238 237 230 228 223 229 223 222 218 211 205 207 212 215 203 174 165 158 152 135 110 345 312 305 307 313 306
302 254 255 252 241 235 241 237 238 230 235 244 249 252 248 240 236 229 233 230 224 222 220 215 211 208 198 204 205 216 180 179 173 161 149 134 140 246 292 299 309 309 304
300 278 253 267 264 243 242 236 241 241 241 230 259 257 256 244 239 230 230 224 219 217 217 213 205 205 197 196 194 189 182 184 178 160 151 145 173 313 321 315 321 313 312
270 272 268 265 259 258 258 255 241 247 248 198 233 243 277 268 235 233 220 216 219 208 210 208 197 190 186 184 179 175 183 185 177 170 161 155 180 203 274 327 343 335 329
332 317 298 279 268 263 265 255 241 230 242 213 210 219 254 246 325 225 240 240 229 205 211 195 186 184 180 184 178 184 184 183 181 180 172 177 196 198 274 327 349 343 319
320 311 304 294 282 274 275 271 253 228 225 237 203 232 237 198 188 276 322 342 288 253 217 184 187 185 182 183 181 178 174 186 188 182 184 195 204 201 231 317 359 338 322
307 304 305 305 301 284 267 272 265 247 226 247 232 196 230 238 236 239 254 246 232 274 265 206 187 180 175 169 152 151 150 193 173 184 201 210 202 213 232 277 336 315 316
304 301 297 295 292 287 265 251 255 260 258 245 240 223 225 227 225 228 237 238 230 150 50 332 201 161 149 138 137 163 157 167 172 189 216 226 209 225 236 267 298 307 316
302 299 303 298 291 286 287 268 242 227 240 236 229 231 233 234 234 236 230 213 177 143 200 165 294 159 174 159 156 148 165 182 181 192 212 236 235 241 249 260 280 296 308
280 284 286 285 284 279 279 275 264 253 238 240 235 228 231 235 236 227 222 216 219 202 198 151 125 146 121 220 151 151 170 190 135 150 233 236 240 246 248 249 273 293 305
287 286 288 289 284 278 272 270 264 254 239 234 238 235 227 230 225 225 222 216 216 216 200 184 160 170 127 108 117 79 95 119 141 240 243 240 241 245 245 259 278 292 313
286 295 290 288 286 271 268 266 269 268 251 245 241 241 250 249 242 229 224 229 221 220 211 118 137 138 141 116 108 108 93 67 22 346 355 61 81 80 58 302 342 62 342
285 291 287 286 282 274 265 271 275 281 267 283 304 299 303 337 281 279 251 240 228 218 216 82 56 112 86 106 98 91 79 77 81 79 66 57 50 59 85 95 88 29 333
290 288 282 283 277 275 287 285 299 315 336 41 44 57 30 16 17 5 10 12 355 300 120 128 108 96 92 88 95 90 80 78 90 80 70 52 58 93 99 87 44 3 344
289 289 281 284 283 288 296 345 52 76 70 66 71 72 57 50 41 33 35 44 29 21 359 144 127 113 106 105 85 83 74 63 53 72 61 45 44 117 88 47 15 353 335
286 288 285 284 277 287 251 98 104 96 85 72 66 67 61 56 50 47 54 58 67 74 78 87 95 106 97 77 98 106 84 46 45 33 52 44 47 93 67 39 5 347 332
290 290 289 276 297 285 136 122 109 97 94 83 72 75 74 76 72 70 64 56 68 74 79 84 70 76 86 87 113 144 110 148 70 26 55 17 21 318 85 16 329 332 347
298 297 281 92 56 116 121 117 113 101 96 90 82 72 74 77 75 75 77 77 79 86 82 86 86 91 58 61 160 134 105 142 115 47 12 21 10 343 183 283 349 1 350
300 287 53 90 90 118 114 112 109 102 101 97 97 94 86 78 77 78 73 72 70 80 79 98 103 90 86 193 121 92 80 81 81 19 15 2 25 29 328 228 351 5 3
286 95 88 88 104 96 111 110 107 103 99 94 91 94 96 88 85 87 80 70 67 69 82 85 86 107 109 88 71 110 121 108 91 51 350 355 3 215 231 222 7 2 3
86 89 91 101 103 84 90 116 111 108 99 91 85 83 91 95 86 104 87 82 74 71 71 81 85 78 70 58 87 112 101 101 113 148 12 303 3 322 299 19 1 359 357
104 97 86 78 95 89 65 86 100 111 104 98 90 89 75 75 86 77 89 86 84 48 82 79 84 63 55 54 53 54 66 117 164 119 20 339 335 358 12 237 351 351 4